{"data":{"norad_id":58647,"intl_designator":"2023-205C","name":"TIANMU-1 13","alt_names":[],"object_type":"PAYLOAD","status":"ACTIVE","operator":null,"country":"PRC","launch_date":"2023-12-25","launch_site_code":"JSC","launch_vehicle":null,"mission":null,"orbit_class":"UNKNOWN","rcs_meters":null,"size_class":null,"mass_kg":null,"dimensions":null,"purposes":["earth_obs"],"wikipedia_slug":null,"has_3d_model":false,"image_url":null,"decayed_at":null,"tle_current":{"epoch":"2026-09-19T23:58:14.667168Z","epoch_age_seconds":57796,"freshness":"FRESH","line1":"1 58647U 23205C   26262.99878087  .00003635  00000+0  13789-3 0  9993","line2":"2 58647  97.3451 283.1257 0006184  12.1410 347.9977 15.27475406151977","mean_motion":15.27475406,"eccentricity":0.0006184,"inclination_deg":97.3451,"raan_deg":283.1257,"arg_perigee_deg":12.141,"mean_anomaly_deg":347.9977,"bstar":0.00013789,"rev_number":15197,"period_min":94.273203636773,"perigee_km":479.11915480374,"apogee_km":487.60545714537,"semimajor_km":6861.4993059746,"source":"CELESTRAK","updated_at":"2026-09-20T09:00:33.254477Z"}}}